Regional Weather Roundup
Issued by NWS

Home | Current Version | Previous Version | Text Only | Print | Product List | Glossary On
Versions: 1 2 3 4 5 6 7 8 9 10 11 12 13 14 15 16 17 18 19 20 21 22 23 24 25 26 27 28 29 30 31 32 33 34 35 36 37 38 39 40 41 42 43 44 45 46 47 48 49 50
000
ASUS46 KSTO 151615
RWRCA

NORTHERN AND CENTRAL CA REGIONAL WEATHER ROUNDUP
NATIONAL WEATHER SERVICE SACRAMENTO CA
800 AM PST FRI DEC 15 2017

NOTE: FAIR INDICATES FEW OR NO CLOUDS BELOW 12,000 FEET WITH NO
SIGNIFICANT WEATHER AND/OR OBSTRUCTIONS TO VISIBILITY.

CAZ001-003-151700-
NORTHWEST AREA

CITY           SKY/WX    TMP DP  RH WIND       PRES   REMARKS
CRESCENT CITY  CLOUDY    43  40  89 CALM      30.24R
UKIAH          PTCLDY    37  34  89 CALM      30.19F
$$

CAZ006-505>513-151700-
BAY AREA

CITY           SKY/WX    TMP DP  RH WIND       PRES   REMARKS
SANTA ROSA     MOCLDY    34  34 100 CALM      30.17S
SAN RAFAEL     N/A       44  MM  MM MISG
NAPA           CLOUDY    37  36  96 N3        30.19S
CONCORD        CLOUDY    39  35  86 CALM      30.20R FOG
OAKLAND CITY   N/A      MM  MM  MM MISG
OAKLAND        CLOUDY    46  40  79 CALM      30.18R HAZE
SAN FRAN CITY  N/A       51  MM  71 MISG
SAN FRAN ARPT  CLOUDY    49  43  80 CALM      30.17R
LIVERMORE      MOCLDY    37  33  85 CALM      30.17F FOG
HAYWARD        CLOUDY    45  35  68 CALM      30.17S
REDWOOD CITY   N/A       41  MM  89 MISG
MOFFETT ARPT   MOCLDY    44  37  76 CALM      30.18S
SAN JOSE ARPT  MOCLDY    44  35  70 SE6       30.16F
$$
CAZ034-037-514>518-151700-
CENTRAL COAST

CITY           SKY/WX    TMP DP  RH WIND       PRES   REMARKS
WATSONVILLE    PTCLDY    42  33  70 CALM      30.15S
SALINAS        CLEAR     44  25  47 E10       30.14S
MONTEREY       PTCLDY    49  28  44 CALM      30.13S
SAN LUIS OBISP PTCLDY    38  26  62 SE3       30.16R
SANTA MARIA    CLEAR     45  22  40 SE3       30.16R
$$
CAZ015-016-151700-
NORTHERN SACRAMENTO VALLEY

CITY           SKY/WX    TMP DP  RH WIND       PRES   REMARKS
REDDING        CLOUDY    38  35  89 CALM      30.18F
RED BLUFF      MOCLDY    38  35  89 NW6       30.19F WCI  33
OROVILLE       MOCLDY    39  37  92 CALM      30.20S
$$
CAZ016>018-151700-
SOUTHERN SACRAMENTO VALLEY

CITY           SKY/WX    TMP DP  RH WIND       PRES   REMARKS
AUBURN         MOCLDY    46  32  57 CALM      30.18S
LINCOLN        FAIR      32  32 100 CALM      30.19S
MARYSVILLE     CLOUDY    36  33  89 NE3       30.20F FOG
SAC INTL ARPT  CLOUDY    37  37 100 CALM      30.19S FOG
MATHER AIRPORT NOT AVBL
DOWNTOWN SAC   N/A       41  MM  MM MISG
SAC EXEC ARPT  CLOUDY    38  38 100 CALM      30.20S FOG
VACAVILLE      CLOUDY    39  37  92 CALM      30.21S FOG
TRAVIS AFB     CLOUDY    34  33  96 CALM      30.18S
$$
CAZ019>021-151700-
SAN JOAQUIN VALLEY

CITY           SKY/WX    TMP DP  RH WIND       PRES   REMARKS
STOCKTON       PTCLDY    34  33  96 CALM      30.18F FOG
MODESTO        CLEAR     34  33  96 CALM      30.18F FOG
MERCED         CLEAR     31  27  85 CALM      30.19S FOG
LEMOORE        PTCLDY    31  21  66 W7        30.21R HAZE    WCI  24
FRESNO         CLEAR     36  32  85 E3        30.20S FOG
HANFORD        FOG       32  31  96 CALM      30.21S VSB 1
PORTERVILLE    CLEAR     33  27  78 CALM      30.20S HAZE
BAKERSFIELD    PTCLDY    39  31  72 CALM      30.19S HAZE
$$
CAZ011-012-071-151700-
NORTHERN MOUNTAINS

CITY           SKY/WX    TMP DP  RH WIND       PRES   REMARKS
YREKA          MOCLDY    25  23  92 CALM      30.29S
MOUNT SHASTA   MOCLDY    31  26  82 VRB3      30.22F
ALTURAS        MOCLDY    21  18  88 W5        30.25R WCI  15
$$
CAZ011-012-071-151700-
SIERRA NEVADA MTNS

CITY           SKY/WX    TMP DP  RH WIND       PRES   REMARKS
BLUE CANYON    MOCLDY    55   0  10 SE5       30.29F
TRUCKEE          N/A     18  14  86 CALM      30.32
TAHOE VLY ARPT PTCLDY    22  17  81 CALM      30.33F
MAMMOTH LAKES  FAIR      16   6  65 N3        30.38S
$$




USA.gov is the U.S. government's official web portal to all federal, state and local government web resources and services.